timestamp,surface_pressure_avg,surface_temp_avg,battery_voltage,lat,long
2021-11-16 00:09:01+00:00,279.8164,8.82,12.73,47.84626,-54.09684
2021-11-16 00:19:01+00:00,263.5748,8.9,12.73,47.84626,-54.09684
2021-11-16 00:29:01+00:00,257.4398,8.9,12.73,47.84626,-54.09684
2021-11-16 00:39:01+00:00,266.0064,8.9,12.73,47.84626,-54.09684
2021-11-16 00:49:01+00:00,271.1081,8.9,12.73,47.84626,-54.09684
2021-11-16 00:59:01+00:00,266.2564,8.9,12.73,47.84626,-54.09684
2021-11-16 01:09:01+00:00,266.008,8.9,12.73,47.84626,-54.09684
2021-11-16 01:19:00+00:00,259.9681,8.9,12.73,47.84626,-54.09684
2021-11-16 01:29:00+00:00,253.9181,8.9,12.73,47.84626,-54.09684
2021-11-16 01:39:00+00:00,239.7414,8.9,12.73,47.84626,-54.09684
2021-11-16 01:49:00+00:00,230.2464,8.9,12.73,47.84626,-54.09684
2021-11-16 01:59:00+00:00,226.0164,8.9,12.73,47.84626,-54.09684
2021-11-16 02:09:00+00:00,225.4648,8.89,12.73,47.84626,-54.09684
2021-11-16 02:19:01+00:00,227.0631,8.9,12.73,47.84626,-54.09684
2021-11-16 02:29:01+00:00,237.0681,8.95,12.73,47.84626,-54.09684
2021-11-16 02:39:01+00:00,233.7931,8.99,12.73,47.84626,-54.09684
2021-11-16 02:49:01+00:00,228.8214,8.99,12.73,47.84626,-54.09684
2021-11-16 02:59:01+00:00,237.6564,9.0,12.73,47.84626,-54.09684
2021-11-16 03:09:01+00:00,246.0548,8.97,12.73,47.84626,-54.09684
2021-11-16 03:19:00+00:00,238.3548,8.99,12.73,47.84626,-54.09684
2021-11-16 03:29:00+00:00,230.188,8.98,12.73,47.84626,-54.09684
2021-11-16 03:39:00+00:00,237.5381,8.95,12.73,47.84626,-54.09684
2021-11-16 03:49:00+00:00,242.5364,8.9,12.73,47.84626,-54.09684
2021-11-16 03:59:00+00:00,243.0615,8.9,12.73,47.84626,-54.09684
2021-11-16 04:09:00+00:00,239.3998,8.9,12.73,47.84626,-54.09684
2021-11-16 04:19:00+00:00,236.2198,8.97,12.73,47.84626,-54.09684
2021-11-16 04:29:00+00:00,241.6731,8.9,12.73,47.84626,-54.09684
2021-11-16 04:39:00+00:00,259.4647,8.99,12.73,47.84626,-54.09684
2021-11-16 04:49:00+00:00,263.7364,9.0,12.73,47.84626,-54.09684
2021-11-16 04:59:00+00:00,259.6464,9.0,12.73,47.84626,-54.09684
2021-11-16 05:09:00+00:00,272.7998,9.0,12.73,47.84626,-54.09684
2021-11-16 05:19:01+00:00,288.0863,9.0,12.73,47.84626,-54.09684
2021-11-16 05:29:01+00:00,286.8431,9.0,12.73,47.84626,-54.09684
2021-11-16 05:39:01+00:00,288.8981,9.0,12.73,47.84626,-54.09684
2021-11-16 05:49:01+00:00,294.338,9.0,12.73,47.84626,-54.09684
2021-11-16 05:59:01+00:00,294.8531,9.0,12.73,47.84626,-54.09684
2021-11-16 06:09:01+00:00,291.3397,9.0,12.73,47.84626,-54.09684
2021-11-16 06:19:00+00:00,282.0831,9.0,12.73,47.84626,-54.09684
2021-11-16 06:29:00+00:00,280.5614,9.0,12.73,47.84626,-54.09684
2021-11-16 06:39:00+00:00,282.053,9.0,12.73,47.84626,-54.09684
2021-11-16 06:49:00+00:00,288.0497,9.0,12.73,47.84626,-54.09684
2021-11-16 06:59:00+00:00,295.1465,9.0,12.73,47.84626,-54.09684
2021-11-16 07:09:00+00:00,298.7014,9.0,12.73,47.84626,-54.09684
2021-11-16 07:19:01+00:00,301.1847,9.0,12.65,47.84626,-54.09684
2021-11-16 07:29:01+00:00,309.1663,9.0,12.65,47.84626,-54.09684
2021-11-16 07:39:01+00:00,314.9547,9.0,12.65,47.84626,-54.09684
2021-11-16 07:49:01+00:00,315.7897,9.0,12.65,47.84626,-54.09684
2021-11-16 07:59:01+00:00,324.373,9.0,12.65,47.84626,-54.09684
2021-11-16 08:09:01+00:00,331.3881,9.0,12.65,47.84626,-54.09684
2021-11-16 08:19:00+00:00,327.303,9.0,12.73,47.84626,-54.09684
2021-11-16 08:29:00+00:00,324.9513,9.0,12.73,47.84626,-54.09684
2021-11-16 08:39:00+00:00,335.6229,9.0,12.73,47.84626,-54.09684
2021-11-16 08:49:00+00:00,342.1946,9.0,12.73,47.84626,-54.09684
2021-11-16 08:59:00+00:00,338.3297,9.0,12.73,47.84626,-54.09684
2021-11-16 09:09:00+00:00,335.3263,9.0,12.73,47.84626,-54.09684
2021-11-16 09:19:00+00:00,347.18800000000016,9.0,12.73,47.84626,-54.09684
2021-11-16 09:29:00+00:00,360.24800000000016,9.0,12.73,47.84626,-54.09684
2021-11-16 09:39:00+00:00,355.923,9.0,12.73,47.84626,-54.09684
2021-11-16 09:49:00+00:00,347.37800000000016,9.0,12.73,47.84626,-54.09684
2021-11-16 09:59:00+00:00,345.9713,9.0,12.73,47.84626,-54.09684
2021-11-16 10:09:00+00:00,355.278,9.0,12.73,47.84626,-54.09684
2021-11-16 10:19:01+00:00,358.5762,9.0,12.65,47.84626,-54.09684
2021-11-16 10:29:01+00:00,341.3096,9.0,12.65,47.84626,-54.09684
2021-11-16 10:39:01+00:00,335.173,9.0,12.65,47.84626,-54.09684
2021-11-16 10:49:01+00:00,346.1363,9.0,12.65,47.84626,-54.09684
2021-11-16 10:59:01+00:00,348.8864,9.0,12.65,47.84626,-54.09684
2021-11-16 11:09:01+00:00,333.7997,9.0,12.65,47.84626,-54.09684
2021-11-16 11:19:01+00:00,332.74300000000005,9.0,12.65,47.84626,-54.09684
2021-11-16 11:29:01+00:00,341.4029,9.0,12.65,47.84626,-54.09684
2021-11-16 11:39:01+00:00,330.8497,9.0,12.65,47.84626,-54.09684
2021-11-16 11:49:01+00:00,324.543,9.0,12.65,47.84626,-54.09684
2021-11-16 11:59:01+00:00,324.733,9.0,12.65,47.84626,-54.09684
2021-11-16 12:09:01+00:00,318.6614,9.0,12.65,47.84626,-54.09684
2021-11-16 12:19:01+00:00,304.0563,9.0,14.0,47.84626,-54.09684
2021-11-16 12:29:01+00:00,298.6814,9.0,14.0,47.84626,-54.09684
2021-11-16 12:39:01+00:00,298.2814,9.0,14.0,47.84626,-54.09684
2021-11-16 12:49:01+00:00,288.1014,9.0,14.0,47.84626,-54.09684
2021-11-16 12:59:01+00:00,280.863,9.0,14.0,47.84626,-54.09684
2021-11-16 13:09:01+00:00,275.7581,9.0,14.0,47.84626,-54.09684
2021-11-16 13:19:00+00:00,270.3914,9.0,14.56,47.84626,-54.09684
2021-11-16 13:29:00+00:00,265.2397,9.0,14.56,47.84626,-54.09684
2021-11-16 13:39:00+00:00,263.3981,9.0,14.56,47.84626,-54.09684
2021-11-16 13:49:00+00:00,259.3014,9.0,14.56,47.84626,-54.09684
2021-11-16 13:59:00+00:00,246.4814,9.0,14.56,47.84626,-54.09684
2021-11-16 14:09:00+00:00,242.3381,9.0,14.56,47.84626,-54.09684
2021-11-16 14:19:00+00:00,249.2797,9.0,14.64,47.84626,-54.09684
2021-11-16 14:29:00+00:00,243.2381,9.0,14.64,47.84626,-54.09684
2021-11-16 14:39:00+00:00,224.3314,9.0,14.64,47.84626,-54.09684
2021-11-16 14:49:00+00:00,217.1931,9.0,14.64,47.84626,-54.09684
2021-11-16 14:59:00+00:00,226.1531,9.0,14.64,47.84626,-54.09684
2021-11-16 15:09:00+00:00,224.2831,9.0,14.64,47.84626,-54.09684
2021-11-16 15:19:00+00:00,212.4498,9.03,14.16,47.84626,-54.09684
2021-11-16 15:29:00+00:00,213.7781,9.02,14.16,47.84626,-54.09684
2021-11-16 15:39:00+00:00,223.8381,9.0,14.16,47.84626,-54.09684
2021-11-16 15:49:00+00:00,215.8114,9.03,14.16,47.84626,-54.09684
2021-11-16 15:59:00+00:00,203.0298,9.06,14.16,47.84626,-54.09684
2021-11-16 16:09:00+00:00,210.4981,9.04,14.16,47.84626,-54.09684
2021-11-16 16:19:00+00:00,221.5131,9.04,14.32,47.84626,-54.09684
2021-11-16 16:29:00+00:00,220.5898,9.06,14.32,47.84626,-54.09684
2021-11-16 16:39:00+00:00,217.7248,9.06,14.32,47.84626,-54.09684
2021-11-16 16:49:00+00:00,222.2365,9.06,14.32,47.84626,-54.09684
2021-11-16 16:59:00+00:00,225.3031,9.08,14.32,47.84626,-54.09684
2021-11-16 17:09:00+00:00,222.3531,9.08,14.32,47.84626,-54.09684
2021-11-16 17:19:00+00:00,224.4398,9.07,14.0,47.84626,-54.09684
2021-11-16 17:29:00+00:00,233.8047,9.05,14.0,47.84626,-54.09684
2021-11-16 17:39:00+00:00,238.7797,9.07,14.0,47.84626,-54.09684
2021-11-16 17:49:00+00:00,236.8114,9.1,14.0,47.84626,-54.09684
2021-11-16 17:59:00+00:00,233.6181,9.06,14.0,47.84626,-54.09684
2021-11-16 18:09:00+00:00,238.5847,9.06,14.0,47.84626,-54.09684
2021-11-16 18:19:00+00:00,243.4314,9.07,14.24,47.84626,-54.09684
2021-11-16 18:29:00+00:00,244.6614,9.05,14.24,47.84626,-54.09684
2021-11-16 18:39:00+00:00,247.5131,9.05,14.24,47.84626,-54.09684
2021-11-16 18:49:00+00:00,246.2631,9.0,14.24,47.84626,-54.09684
2021-11-16 18:59:00+00:00,244.5664,8.9,14.24,47.84626,-54.09684
2021-11-16 19:09:00+00:00,253.1564,8.9,14.24,47.84626,-54.09684
2021-11-16 19:19:00+00:00,266.843,8.91,13.84,47.84626,-54.09684
2021-11-16 19:29:00+00:00,276.9664,9.0,13.84,47.84626,-54.09684
2021-11-16 19:39:00+00:00,284.0214,9.0,13.84,47.84626,-54.09684
2021-11-16 19:49:00+00:00,298.2513,9.0,13.84,47.84626,-54.09684
2021-11-16 19:59:00+00:00,310.2697,9.0,13.84,47.84626,-54.09684
2021-11-16 20:09:00+00:00,319.3897,9.0,13.84,47.84626,-54.09684
2021-11-16 20:19:00+00:00,324.8997,9.0,13.29,47.84626,-54.09684
2021-11-16 20:29:00+00:00,332.5630000000001,9.0,13.29,47.84626,-54.09684
2021-11-16 20:39:00+00:00,342.7346,9.0,13.29,47.84626,-54.09684
2021-11-16 20:49:00+00:00,346.6296,9.0,13.29,47.84626,-54.09684
2021-11-16 20:59:00+00:00,348.8329,9.04,13.29,47.84626,-54.09684
2021-11-16 21:09:00+00:00,358.8396,9.01,13.29,47.84626,-54.09684
2021-11-16 21:19:01+00:00,363.0963,9.0,12.97,47.84626,-54.09684
2021-11-16 21:29:01+00:00,365.1296,9.0,12.97,47.84626,-54.09684
2021-11-16 21:39:01+00:00,365.923,9.0,12.97,47.84626,-54.09684
2021-11-16 21:49:01+00:00,367.763,9.0,12.97,47.84626,-54.09684
2021-11-16 21:59:01+00:00,371.7413,9.0,12.97,47.84626,-54.09684
2021-11-16 22:09:01+00:00,365.4879,9.0,12.97,47.84626,-54.09684
2021-11-16 22:19:00+00:00,364.7546,9.03,12.73,47.84626,-54.09684
2021-11-16 22:29:00+00:00,369.3979,9.0,12.73,47.84626,-54.09684
2021-11-16 22:39:00+00:00,369.5763,8.9,12.73,47.84626,-54.09684
2021-11-16 22:49:00+00:00,359.4547,8.9,12.73,47.84626,-54.09684
2021-11-16 22:59:00+00:00,356.8446,8.93,12.73,47.84626,-54.09684
2021-11-16 23:09:00+00:00,362.2663,8.9,12.73,47.84626,-54.09684
2021-11-16 23:19:01+00:00,356.0462,8.92,12.65,47.84626,-54.09684
2021-11-16 23:29:01+00:00,343.9313,9.0,12.65,47.84626,-54.09684
2021-11-16 23:39:01+00:00,342.9045,9.0,12.65,47.84626,-54.09684
2021-11-16 23:49:01+00:00,341.73800000000006,8.9,12.65,47.84626,-54.09684
2021-11-16 23:59:01+00:00,333.9847,8.95,12.65,47.84626,-54.09684
